TimeCDT,TemperatureF,Dew PointF,Humidity,Sea Level PressureIn,VisibilityMPH,Wind Direction,Wind SpeedMPH,Gust SpeedMPH,PrecipitationIn,Events,Conditions,WindDirDegrees,DateUTC
12:53 AM,30.0,28.0,92,30.00,10.0,Calm,Calm,-,N/A,,Overcast,0,2013-10-22 05:53:00
1:53 AM,30.9,28.9,92,30.00,10.0,Calm,Calm,-,N/A,,Overcast,0,2013-10-22 06:53:00
2:53 AM,32.0,28.9,88,29.99,10.0,East,3.5,-,N/A,,Mostly Cloudy,80,2013-10-22 07:53:00
3:53 AM,32.0,28.0,85,29.99,10.0,Calm,Calm,-,N/A,,Overcast,0,2013-10-22 08:53:00
4:53 AM,32.0,30.0,92,29.98,10.0,NE,3.5,-,N/A,,Mostly Cloudy,40,2013-10-22 09:53:00
5:53 AM,32.0,30.9,96,29.97,10.0,Calm,Calm,-,N/A,,Overcast,0,2013-10-22 10:53:00
6:53 AM,33.1,28.9,85,29.97,10.0,Calm,Calm,-,N/A,,Overcast,0,2013-10-22 11:53:00
7:53 AM,33.1,27.0,78,29.99,10.0,ENE,4.6,-,N/A,,Overcast,60,2013-10-22 12:53:00
8:53 AM,33.1,27.0,78,29.99,10.0,ENE,5.8,-,N/A,,Overcast,60,2013-10-22 13:53:00
9:53 AM,35.1,27.0,72,30.01,10.0,NE,10.4,-,N/A,,Overcast,40,2013-10-22 14:53:00
10:53 AM,37.0,26.1,65,30.01,10.0,NE,8.1,-,N/A,,Overcast,40,2013-10-22 15:53:00
11:53 AM,39.0,26.1,60,30.01,10.0,North,9.2,-,N/A,,Overcast,10,2013-10-22 16:53:00
12:53 PM,39.9,27.0,60,30.01,10.0,North,9.2,-,N/A,,Mostly Cloudy,350,2013-10-22 17:53:00
1:53 PM,43.0,26.1,51,29.99,10.0,North,12.7,-,N/A,,Mostly Cloudy,350,2013-10-22 18:53:00
2:53 PM,41.0,27.0,57,30.00,10.0,North,13.8,-,N/A,,Overcast,350,2013-10-22 19:53:00
3:53 PM,39.9,26.1,58,30.01,10.0,North,12.7,-,N/A,,Overcast,360,2013-10-22 20:53:00
4:53 PM,39.0,26.1,60,30.03,10.0,NNW,13.8,-,N/A,,Overcast,340,2013-10-22 21:53:00
5:53 PM,37.9,25.0,60,30.05,10.0,NNW,10.4,-,N/A,,Overcast,340,2013-10-22 22:53:00
6:53 PM,37.0,27.0,67,30.05,10.0,NNW,8.1,-,N/A,,Overcast,340,2013-10-22 23:53:00
7:53 PM,37.0,26.1,65,30.06,10.0,NW,9.2,-,N/A,,Overcast,320,2013-10-23 00:53:00
8:53 PM,35.1,26.1,70,30.07,10.0,NW,8.1,-,N/A,,Overcast,310,2013-10-23 01:53:00
9:53 PM,32.0,26.1,79,30.07,10.0,WNW,5.8,-,N/A,,Overcast,290,2013-10-23 02:53:00
10:53 PM,36.0,28.0,73,30.08,10.0,WNW,10.4,-,N/A,,Overcast,300,2013-10-23 03:53:00
11:53 PM,35.1,26.1,70,30.07,10.0,WNW,10.4,-,N/A,,Overcast,300,2013-10-23 04:53:00